Miscellaneous Local Product
Issued by NWS Hastings, NE

Home | Current Version | Previous Version | Text Only | Print | Product List | Glossary On
Versions: 1 2 3 4 5 6 7 8 9 10 11 12 13 14 15 16 17 18 19 20 21 22 23 24 25 26 27 28 29 30 31 32 33 34 35 36 37 38 39 40 41 42 43 44 45 46 47 48 49 50
000
AXUS43 KGID 061502
MISGRI

GID CWA HOURLY WEATHER ROUNDUP
NATIONAL WEATHER SERVICE HASTINGS NE
1000 AM CDT MON JUL 06 2015

NOTE: "FAIR" INDICATES FEW OR NO CLOUDS BELOW 12,000 FEET WITH NO
SIGNIFICANT WEATHER AND/OR OBSTRUCTIONS TO VISIBILITY.

...SOUTH CENTRAL NEBRASKA...

CITY           SKY/WX    TMP DP  RH WIND       PRES   REMARKS
GRAND ISLAND   CLOUDY    73  69  87 N14       29.95R
HASTINGS       LGT RAIN  71  69  93 N12       29.93S
KEARNEY        CLOUDY    70  64  83 N23       29.97R
ORD            CLOUDY    68  64  87 N18G25    29.99R
YORK           CLOUDY    72  72 100 CALM      29.92R
AURORA         CLOUDY    73  73  99 N10       29.94R
LEXINGTON      CLOUDY    69  64  84 N16G28    30.01R
HOLDREGE       CLOUDY    68  66  92 N14G20    29.97R
HEBRON         CLOUDY    78  68  73 NE6       29.88R

...NEBRASKA PANHANDLE...

CITY           SKY/WX    TMP DP  RH WIND       PRES   REMARKS
CHADRON        CLOUDY    61  57  87 N7        30.22R FOG
ALLIANCE       PTSUNNY   63  57  81 N14       30.19R HAZE
SCOTTSBLUFF    CLOUDY    61  55  81 NE8       30.22R HAZE
SIDNEY         CLOUDY    59  57  93 NE18G25   30.21R FOG

...WESTERN AND NORTH CENTRAL NEBRASKA...

CITY           SKY/WX    TMP DP  RH WIND       PRES   REMARKS
VALENTINE      CLOUDY    66  60  81 N14       30.11R HAZE
AINSWORTH      CLOUDY    64  64 100 N18G24    30.09R FOG
ONEILL         CLOUDY    64  63  97 N18G28    30.03R FOG
BROKEN BOW     CLOUDY    66  62  87 N22G30    30.02R FOG
IMPERIAL       CLOUDY    65  58  78 N18G26    30.10R
NORTH PLATTE   CLOUDY    65  59  81 N17G28    30.06R
MCCOOK         CLOUDY    70  62  76 N23G30    30.01R

...EASTERN NEBRASKA...

CITY           SKY/WX    TMP DP  RH WIND       PRES   REMARKS
NORFOLK        CLOUDY    71  69  93 W10       29.92R
SO SIOUX CITY  LGT RAIN  73  69  87 NW6       29.88R
TEKAMAH        CLOUDY    75  71  87 CALM      29.88R
ALBION         CLOUDY    68  66  93 N12G20    29.95R
OMAHA EPPLEY   LGT RAIN  74  71  91 SE6       29.88R
MILLARD        DRIZZLE   73  71  93 CALM      29.88F
LINCOLN        LGT RAIN  75  72  90 N9        29.90R
NEBRASKA CITY  CLOUDY    77  69  75 CALM      29.89R
BEATRICE       CLOUDY    80  70  72 E9        29.87S
FALLS CITY     CLOUDY    81  73  76 S10       29.88R

...NORTHERN KANSAS...

CITY           SKY/WX    TMP DP  RH WIND       PRES   REMARKS
GOODLAND       CLOUDY    64  60  87 N28G37    30.09R
HILL CITY      CLOUDY    72  69  90 N21G28    29.93R
NORTON         CLOUDY    68  63  83 N16G25    29.97R
PHILLIPSBURG   LGT RAIN  73  72  94 N16G24    29.91S
SMITH CENTER   DRIZZLE   72  70  94 N5G18     29.92R
HAYS           PTSUNNY   81  64  57 NW6       29.88R
RUSSELL        MOSUNNY   85  67  54 SW12      29.86R
CONCORDIA      MOSUNNY   82  69  64 S8        29.87R
SALINA         MOSUNNY   88  69  53 S13G25    29.86R HX  92
TOPEKA         CLOUDY    83  73  72 S9        29.90S



USA.gov is the U.S. government's official web portal to all federal, state and local government web resources and services.